Location: Belmont Heights
(33.7689°N, 118.1425°W)
Time: 06:10:56
(UTC+00:00)

Daily predictions for brighter satellites

Satellite Brightness Start Highest point End
(mag) Time Altitude Azimuth Time Altitude Azimuth Time Altitude Azimuth
Cosmos 1503 Rocket 4.5 12:13:42 56° E 12:13:42 56° E 12:18:32 10° SSE
Cosmos 1697 Rocket 2.6 12:31:20 60° N 12:32:24 83° ENE 12:38:03 10° SSE
IRS-1D 4.2 12:27:55 10° NNE 12:32:48 53° E 12:37:45 10° S
SJ-11-01 4.3 12:29:51 10° NNE 12:34:33 77° ESE 12:39:12 10° S
Cosmos 1777 Rocket 4.0 12:39:30 61° SW 12:39:30 61° SW 12:44:03 10° S
Meteor 2-12 Rocket 4.3 12:34:36 10° SSW 12:40:41 68° W 12:46:46 10° N
USA 238 DEB 4.0 12:41:44 38° NW 12:45:04 72° WSW 12:53:14 10° SSE
USA 238 4.0 12:41:47 38° NW 12:45:11 73° WSW 12:53:21 10° SSE
Cosmos 468 Rocket 3.8 12:40:22 10° SSW 12:45:38 78° WNW 12:50:53 10° NNE
Cosmos 1782 3.6 12:48:38 35° S 12:48:38 35° S 12:50:48 10° S
Atlas Centaur 2 4.1 12:51:30 23° SW 12:53:59 27° SSW 13:00:31 10° SSE
Cosmos 1536 Rocket 3.4 12:51:54 10° S 12:56:19 80° W 13:00:45 10° N
CZ-4 R/B 3.7 12:52:41 10° NNE 12:57:19 82° ESE 13:01:55 10° SSW
Cosmos 2082 Rocket 2.0 12:55:33 10° SSW 13:01:10 72° WNW 13:06:47 10° NNE
OPS 6432 4.1 13:03:45 80° SW 13:03:45 80° SW 13:07:09 10° SSE
H-2A R/B 3.7 13:04:50 17° SSW 13:06:18 22° S 13:12:21 10° SE
FengYun 1-2 T 4.4 13:00:58 10° N 13:06:24 49° WNW 13:11:49 10° SW
SKYMED 2 3.8 13:03:55 10° SSE 13:08:13 71° ENE 13:12:32 10° N
Cosmos 1634 Rocket 4.5 13:10:36 29° NW 13:12:29 35° W 13:17:59 10° SSW
Cosmos 2098 Rocket 3.7 13:10:05 10° NNW 13:15:44 62° W 13:21:25 10° S
SL-8 R/B 4.4 13:17:15 22° NNW 13:19:56 46° NNE 13:24:30 10° ESE
Centaur D-1AR AC-48 4.4 12:57:47 10° WSW 13:20:36 39° SSW 13:25:44 10° SE
Tiangong -0.3 13:21:09 20° N 13:21:34 21° N 13:24:05 10° NE
SL-24 R/B 4.4 13:18:03 10° N 13:23:23 60° WNW 13:28:00 10° SSW
Cosmos 372 Rocket 4.5 13:19:06 10° N 13:24:07 59° ENE 13:29:05 10° SSE
Cosmos 990 Rocket 4.2 13:24:31 19° NW 13:27:59 46° WSW 13:32:56 10° S
Cosmos 2369 4.2 13:25:38 10° NNW 13:31:16 61° ENE 13:36:50 10° SSE
SL-24 R/B - RUBIN 2 3.7 13:28:17 13° NNW 13:32:03 70° ENE 13:36:28 10° SE
Cosmos 1346 Rocket 2.8 13:28:32 10° SSW 13:32:04 46° W 13:35:39 10° N
Cosmos 1980 Rocket 2.1 13:27:36 11° NNW 13:32:58 68° WSW 13:38:29 10° S
COSMO-SKYMED 1 2.3 13:35:49 10° S 13:39:54 73° W 13:44:01 10° NNW
USA 267 4.1 13:33:48 10° NE 13:40:10 53° SE 13:46:29 10° SSW
CZ-3C R/B 3.7 13:37:12 10° SW 13:41:32 31° SSE 13:59:44 10° E
Cosmos 1606 Rocket 3.5 13:41:21 10° NNW 13:45:44 65° W 13:50:04 10° S
Cosmos 2333 Rocket 4.3 13:43:44 10° N 13:48:16 23° ENE 13:52:44 10° ESE
BREEZE M DEB (TANK) 1.7 13:55:43 11° WSW 13:57:42 41° NNW 14:00:28 10° NE
Cosmos 1484 Rocket 2.8 13:55:28 10° N 13:58:41 40° WNW 14:01:51 10° SW
USA 59 Rocket 0.9 13:56:27 10° NNW 14:00:22 55° ENE 14:05:49 10° SE
Cosmos 841 Rocket 4.2 13:55:59 10° SW 14:00:35 31° WNW 14:05:15 10° N
Cosmos 2026 Rocket 3.9 13:54:48 10° SSW 14:00:45 61° W 14:06:46 10° N
Meteor 2-3 Rocket 4.0 13:58:14 10° SSW 14:03:44 45° WNW 14:09:13 10° N
Cosmos 2360 Rocket 4.4 14:01:06 10° N 14:05:17 21° ENE 14:09:25 10° ESE
Cosmos 1933 4.3 14:06:44 10° NW 14:09:51 24° W 14:12:56 10° SW
COSMOS 2455 2.9 14:06:43 10° NNW 14:12:43 77° WSW 14:18:42 10° SSE
Cosmos 1726 Rocket 3.9 14:09:50 10° NNW 14:13:55 40° W 14:17:52 10° SSW
CZ-2D R/B 2.9 14:14:19 10° NNE 14:17:29 78° ESE 14:20:38 10° S
Delta 2 Rocket 2.5 14:14:43 10° WNW 14:17:43 70° N 14:20:41 10° E
NOSS 2-1 (C) 3.9 14:15:57 10° NNW 14:19:55 73° ENE 14:25:26 10° SE
Cosmos 1092 Rocket 4.3 14:14:38 10° SSW 14:20:41 48° W 14:26:44 10° N
Cosmos 1626 Rocket 3.7 14:17:00 10° S 14:21:25 86° E 14:25:51 10° N
Cosmos 1898 Rocket 3.9 14:17:02 10° NNW 14:21:59 44° WSW 14:26:57 10° S
